Location: Gu�tanj
(46.5431°N, 14.9692°E)
Time: 14:49:28
(UTC+00:00)

SJ-11-01 - Pass Details

Date: 03 March 2021
Orbit: 684 x 700 km, 98.0° (Epoch: 20 April)

Event Time Altitude Azimuth Distance (km) Brightness Sun altitude
Rises 17:17:09 0° 152° (SSE) 3,043 7.4 -5.6°
Reaches altitude 10° 17:19:25 10° 148° (SSE) 2,133 6.5 -6.0°
Maximum altitude 17:23:58 54° 72° (ENE) 840 4.4 -6.8°
Drops below altitude 10° 17:28:34 10° 355° (N) 2,159 6.9 -7.6°
Sets 17:30:52 0° 351° (N) 3,083 7.7 -8.0°
